Meteo Giornale » Osservazioni meteo Stati Uniti (USA) » San Diego Intl-Lindbergh Fld
ore: 12:51 - Osservazioni Meteo San Diego Intl-Lindbergh Fld
Lat. 32° 44' N Lon. 117° 10' W Alt. 4 metri s.l.m.
26 °C
Poco Nuvoloso
Temp. 24 Ore
20 °C
26 °C
Nord-Ovest
16.7 Km/h
Dew point 18 °C
Umidità 61 %
Visibilità 10 Km
Il sole sorge alle ore 06:23
Il sole tramonta alle ore 19:13
| Data e Ora | Cielo e Fenomeni | T °C | DP °C | Um. % | Pres. hPa | Vis. km | Vento km/h | |
|---|---|---|---|---|---|---|---|---|
| Oggi h: 12:51 | Poco Nuvoloso | 26 | 18 | 61 | 1015 | 10 | NO 16.7 | |
| Oggi h: 11:51 | Poco Nuvoloso | 26 | 18 | 61 | 1016 | 10 | O/NO 16.7 | |
| Oggi h: 10:51 | Poco Nuvoloso | 24 | 18 | 69 | 1016 | 10 | O 11.1 | |
| Oggi h: 09:59 | Nuvoloso | 23 | 18 | 73 | 1016 | 10 | O/NO 11.1 | |
| Oggi h: 09:51 | Molto Nuvoloso | 23 | 18 | 73 | 1016 | 10 | O 16.7 | |
| Oggi h: 08:51 | Molto Nuvoloso | 23 | 18 | 73 | 1015 | 10 | O/NO 11.1 | |
| Oggi h: 07:51 | Molto Nuvoloso | 22 | 18 | 78 | 1015 | 10 | N 5.5 | |
| Oggi h: 06:51 | Molto Nuvoloso | 22 | 18 | 78 | 1015 | 10 | O/NO 9.3 | |
| Oggi h: 05:51 | Molto Nuvoloso | 21 | 18 | 82 | 1014 | 10 | N 0 | |
| Oggi h: 05:05 | Molto Nuvoloso | 21 | 18 | 82 | 1014 | 10 | N 0 | |
| Oggi h: 04:58 | Molto Nuvoloso | 21 | 18 | 82 | 1014 | 10 | N 0 | |
| Oggi h: 04:51 | Nuvoloso | 21 | 18 | 82 | 1014 | 10 | N 0 | |
| Oggi h: 04:43 | Nuvoloso | 20 | 18 | 88 | 1014 | 10 | N 0 | |
| Oggi h: 03:58 | Molto Nuvoloso | 21 | 18 | 82 | 1014 | 10 | N 0 | |
| Oggi h: 03:51 | Molto Nuvoloso | 21 | 18 | 82 | 1014 | 10 | N 0 | |
| Oggi h: 03:39 | Molto Nuvoloso | 21 | 18 | 82 | 1014 | 10 | N 0 | |
| Oggi h: 02:51 | Poco Nuvoloso | 20 | 18 | 88 | 1014 | 10 | N 0 | |
| Oggi h: 02:16 | Nuvoloso | 21 | 18 | 82 | 1014 | 10 | N 0 | |
| Oggi h: 02:09 | Molto Nuvoloso | 21 | 18 | 82 | 1014 | 10 | N 5.5 | |
| Oggi h: 01:51 | Molto Nuvoloso | 21 | 18 | 82 | 1014 | 10 | E/NE 7.4 | |
| Oggi h: 01:38 | Molto Nuvoloso | 21 | 18 | 82 | 1014 | 10 | N 5.5 | |
| Oggi h: 00:51 | Poco Nuvoloso | 21 | 18 | 82 | 1015 | 10 | N 5.5 | |
| Ieri h: 23:51 | Poco Nuvoloso | 21 | 18 | 82 | 1015 | 10 | N 5.5 | |
| Ieri h: 22:51 | Poco Nuvoloso | 21 | 18 | 82 | 1014 | 10 | N 5.5 | |
| Ieri h: 21:51 | Poco Nuvoloso | 22 | 18 | 78 | 1014 | 10 | NO 7.4 | |
| Ieri h: 20:51 | Poco Nuvoloso | 22 | 18 | 78 | 1014 | 10 | NO 9.3 | |
| Ieri h: 19:51 | Poco Nuvoloso | 22 | 18 | 78 | 1013 | 10 | NO 9.3 | |
| Ieri h: 18:51 | Poco Nuvoloso | 23 | 18 | 73 | 1012 | 10 | NO 9.3 | |
| Ieri h: 17:51 | Poco Nuvoloso | 24 | 18 | 69 | 1012 | 10 | NO 11.1 | |
| Ieri h: 16:51 | Poco Nuvoloso | 24 | 18 | 69 | 1013 | 10 | O/NO 14.8 | |
| Ieri h: 15:51 | Poco Nuvoloso | 25 | 18 | 65 | 1013 | 10 | NO 11.1 | |
| Ieri h: 14:51 | Poco Nuvoloso | 25 | 18 | 65 | 1016 | 10 | NO 14.8 | |
| Ieri h: 13:51 | Poco Nuvoloso | 25 | 18 | 65 | 1014 | 10 | O/NO 18.5 | |



